This demonstration page uses our WeatherBlox Daily Observations layout. Learn more.

Left ArrowRight Arrow

39.01783, -85.05884

Hourly Observations for November 1, 2020

Temp ( °F °C ) Dew Point ( °F °C ) Humidity (%) Winds ( mph kmh ) Pressure ( in mb ) Visibility ( mi km ) Precip ( " mm )
12:52 am 00:52 Clear 50 10 38 3.3 63 63 S 9 15 30.05 1018 10 16.0934 0 0
1:47 am 01:47 Mostly Cloudy 52 11 39 4 62 62 S 13 20 30.05 1018 10 16.0934 0 0
1:52 am 01:52 Mostly Cloudy 51 10.6 39 3.9 64 64 S 14 22 30.03 1017 10 16.0934 0 0
1:52 am 01:52 Partly Cloudy 52 11.1 41 5 66 66 SSW 12 19 30.01 1016 10 16.0934 0 0
2:52 am 02:52 Partly Cloudy 53 11.7 43 6.1 69 69 SSW 10 17 30 1016 10 16.0934 0 0
3:52 am 03:52 Mostly Clear 53 11.7 44 6.7 72 72 SSW 13 20 29.97 1015 10 16.0934 0 0
4:52 am 04:52 Cloudy 53 11.7 45 7.2 74 74 SSW 15 24 29.94 1014 10 16.0934 0 0
5:52 am 05:52 Mostly Cloudy 53 11.7 44 6.7 72 72 WSW 14 22 29.95 1014 10 16.0934 0 0
6:52 am 06:52 Cloudy 53 11.7 43 6.1 69 69 WSW 17 28 29.96 1015 10 16.0934 0 0
7:52 am 07:52 Partly Cloudy 52 11.1 40 4.4 64 64 W 15 24 29.98 1015 10 16.0934 0 0
8:52 am 08:52 Partly Cloudy 52 11.1 31 -0.6 45 45 W 22 35 30.01 1016 10 16.0934 0 0
9:52 am 09:52 Mostly Sunny 51 10.6 24 -4.4 35 35 WNW 24 39 30.04 1017 10 16.0934 0 0
10:52 am 10:52 Mostly Sunny 52 11.1 25 -3.9 35 35 W 25 41 30.06 1018 10 16.0934 0 0
11:52 am 11:52 Mostly Sunny 53 11.7 23 -5 31 31 W 32 52 30.08 1019 10 16.0934 0 0
12:52 pm 12:52 Partly Cloudy 52 11.1 22 -5.6 31 31 WNW 25 41 30.08 1019 10 16.0934 0 0
1:52 pm 13:52 Partly Cloudy 51 10.6 21 -6.1 31 31 WNW 29 46 30.1 1019 10 16.0934 0 0
2:52 pm 14:52 Partly Cloudy 49 9.4 24 -4.4 38 38 WNW 23 37 30.13 1020 10 16.0934 0 0
3:52 pm 15:52 Partly Cloudy 46 7.8 23 -5 40 40 NW 24 39 30.18 1022 10 16.0934 0 0
4:52 pm 16:52 Mostly Cloudy 42 5.6 22 -5.6 45 45 NW 17 28 30.23 1024 10 16.0934 0 0
5:52 pm 17:52 Mostly Cloudy 40 4.4 21 -6.1 47 47 NW 17 28 30.26 1025 10 16.0934 0 0
6:52 pm 18:52 Mostly Cloudy 39 3.9 19 -7.2 45 45 NW 17 28 30.29 1026 10 16.0934 0 0
7:52 pm 19:52 Mostly Cloudy 39 3.9 18 -7.8 43 43 NW 21 33 30.33 1027 10 16.0934 0 0
8:52 pm 20:52 Partly Cloudy 37 2.8 18 -7.8 46 46 NW 16 26 30.34 1028 10 16.0934 0 0
9:52 pm 21:52 Partly Cloudy 36 2.2 19 -7.2 50 50 NW 14 22 30.36 1028 10 16.0934 0 0
10:52 pm 22:52 Clear 34 1.1 19 -7.2 54 54 WNW 9 15 30.36 1028 10 16.0934 0 0
11:52 pm 23:52 Clear 33 0.6 20 -6.7 58 58 W 10 17 30.36 1028 10 16.0934 0 0

Powered by AerisWeather